Regional Weather Roundup
Issued by NWS

Home | Current Version | Previous Version | Graphics & Text | Print | Product List | Glossary On
Versions: 1 2 3 4 5 6 7 8 9 10 11 12 13 14 15 16 17 18 19 20 21 22 23 24 25 26 27 28 29 30 31 32 33 34 35 36 37 38 39 40 41 42 43 44 45 46 47 48 49 50
000
ASUS43 KLOT 130358
RWRIL

ILLINOIS REGIONAL WEATHER ROUNDUP
NATIONAL WEATHER SERVICE CHICAGO/ROMEOVILLE IL
1100 PM CDT SAT JUL 12 2014

NOTE: "FAIR" INDICATES FEW OR NO CLOUDS BELOW 12,000 FEET WITH NO
SIGNIFICANT WEATHER AND/OR OBSTRUCTIONS TO VISIBILITY.

* THESE STATIONS ARE NOT UNDER NWS QUALITY CONTROL. THEY ALSO MAY NOT
  REPORT WEATHER SUCH AS PRECIPITATION OR FOG.

ILZ001-002-007-009-015-016-024-130500-
NORTHWEST ILLINOIS

CITY           SKY/WX    TMP DP  RH WIND       PRES   REMARKS
MOLINE         CLOUDY    74  70  87 W8        29.91R
$$

ILZ003-004-008-010-011-017-018-130500-
NORTH CENTRAL ILLINOIS

CITY           SKY/WX    TMP DP  RH WIND       PRES   REMARKS
ROCKFORD       NOT AVBL
$$

ILZ005-006-012>014-019>023-130500-
NORTHEAST ILLINOIS

CITY           SKY/WX    TMP DP  RH WIND       PRES   REMARKS
CHICAGO-OHARE  RAIN      79  73  82 SW12      29.85R HX  82
CHICAGO-MIDWAY LGT RAIN  80  77  90 SW12      29.86R HX  87
AURORA         RAIN      73  68  84 NW22G43   29.89R
WAUKEGAN       TSTM      76  73  91 VRB6G28   29.80F FOG
DUPAGE AIRPORT LGT RAIN  78  75  90 W14       29.90R HX  81
WHEELING       TSTM      79  76  90 SW8       29.86S HX  83
NORTHERLY ISL    N/A     79  74  84 S7          N/A  HX  82
$$

LMZ740>746-130500-
SOUTHERN LAKE MICHIGAN

STATION/POSITION SKY/WX   TEMP    WIND        PRES    VSBY  WAVE
                          AIR SEA DIR/SP/G                  HT/PER
                          (F)     (DEG/KT/KT) (MB)    (MI)  (FT/S)
SOUTHERN BUOY              64 61  160/ 10/ 12 1010.0F         1/ 4
WAUKEGAN HARBOR            60     190/ 15/ 16 1010.5F
HARRISON CRIB              72     180/ 15/ 16   N/A
BURNHAM HARBOR             79     190/  9/ 11   N/A
CALUMET HARBOR             77     200/  9/ 12 1012.1F
BURNS HARBOR               76     190/ 12/ 19 1011.9F
MICHIGAN CITY              76     140/ 12/ 20   N/A
$$

ILZ025>027-034>036-040-047-049-050-058-095>099-130500-
WEST-CENTRAL ILLINOIS

CITY           SKY/WX    TMP DP  RH WIND       PRES   REMARKS
$$

ILZ028>032-037-038-041>044-048-051>054-059>061-130500-
CENTRAL ILLINOIS

CITY           SKY/WX    TMP DP  RH WIND       PRES   REMARKS
PEORIA         NOT AVBL
SPRINGFIELD    CLOUDY    82  73  74 SW9       29.97R HX  87
TAYLORVILLE    NOT AVBL
$$

ILZ033-039-045-046-055>057-062-063-130500-
EAST-CENTRAL ILLINOIS

CITY           SKY/WX    TMP DP  RH WIND       PRES   REMARKS
CHAMPAIGN      PTCLDY    78  74  87 S10       29.97R HX  81
MATTOON        CLEAR     79  75  87 S9        29.98S HX  83
$$

ILZ079-100>102-130500-
SOUTHWEST ILLINOIS

CITY           SKY/WX    TMP DP  RH WIND       PRES   REMARKS
CAHOKIA*       CLEAR     84  72  67 S7        30.00S HX  89
$$

ILZ064>066-069>071-074>076-080>082-084>086-088>090-092>094-130500-
SOUTH-CENTRAL ILLINOIS

CITY           SKY/WX    TMP DP  RH WIND       PRES   REMARKS
CARBONDALE     CLEAR     80  73  79 S9        30.04S HX  84
$$

ILZ067-068-072-073-078-083-087-091-130500-
SOUTHEAST ILLINOIS

CITY           SKY/WX    TMP DP  RH WIND       PRES   REMARKS
$$

ABBREVIATIONS USED IN REMARKS
   TC - TEMPERATURE IN CELSIUS
  WCI - WIND CHILL INDEX
   HX - HEAT INDEX
  VSB - VISIBILITY
$$



USA.gov is the U.S. government's official web portal to all federal, state and local government web resources and services.